Regional Weather Roundup
Issued by NWS

Home | Current Version | Previous Version | Graphics & Text | Print | Product List | Glossary On
Versions: 1 2 3 4 5 6 7 8 9 10 11 12 13 14 15 16 17 18 19 20 21 22 23 24 25 26 27 28 29 30 31 32 33 34 35 36 37 38 39 40 41 42 43 44 45 46 47 48 49 50
000
ASUS44 KMEG 200200
RWRTN
TENNESSEE HOURLY STATE WEATHER ROUNDUP
NATIONAL WEATHER SERVICE MEMPHIS TN
800 PM CST FRI DEC 19 2014

TNZ002-004-019-021-049-052-054-088>092-200300-
WEST TENNESSEE

CITY           SKY/WX    TMP DP  RH WIND       PRES   REMARKS
MEMPHIS INTL   CLOUDY    43  34  70 NE7       30.23R
NWS MEMPHIS      N/A     41 N/A N/A MISG        N/A
JACKSON        CLOUDY    40  30  67 CALM      30.23R
DYERSBURG      CLOUDY    39  23  52 CALM      30.26R
UNION CITY     PTCLDY    36  28  75 NE6       30.23R WCI  31
PARIS          CLOUDY    36  27  69 E9        30.21F WCI  29
LEXINGTON      MOCLDY    39  28  65 NE3       30.21R
SAVANNAH       CLOUDY    39  30  70 N5        30.22R
$$

TNZ008-025-027-028-033-062-065-066-200300-
NORTH MIDDLE TENNESSEE

CITY           SKY/WX    TMP DP  RH WIND       PRES   REMARKS
NASHVILLE      CLOUDY    38  28  67 NE9       30.24F WCI  31
CLARKSVILLE    CLOUDY    36  28  73 NE7       30.24F WCI  30
COOKEVILLE     CLEAR     36  28  75 N5        30.19F WCI  32
CROSSVILLE     CLOUDY    35  26  69 N8        30.16F WCI  29
$$

TNZ061-075-076-078-094-096-097-200300-
SOUTH MIDDLE TENNESSEE

CITY           SKY/WX    TMP DP  RH WIND       PRES   REMARKS
FAYETTEVILLE   CLEAR     36  27  69 MISG      30.20R
TULLAHOMA      CLEAR     36  27  69 NE5       30.20R WCI  32
WINCHESTER     CLOUDY    37  28  70 N7        30.20R WCI  32
SHELBYVILLE    CLOUDY    37  30  75 N5        30.23R WCI  34
$$

TNZ017-018-042-046-047-200300-
NORTHEAST TENNESSEE

CITY           SKY/WX    TMP DP  RH WIND       PRES   REMARKS
TRI CITIES     MOCLDY    33  26  75 N3        30.19S
ELIZABETHTON   CLEAR     30  25  80 CALM      30.18S
$$

TNZ012-013-036-069-073-074-200300-
CENTRAL EAST TENNESSEE

CITY           SKY/WX    TMP DP  RH WIND       PRES   REMARKS
KNOXVILLE      CLOUDY    39  27  62 N8        30.16F WCI  33
OAK RIDGE      CLOUDY    40  27  59 VRB5      30.19F
GATLINBURG     CLEAR     36  28  75 CALM      30.16F
$$

TNZ083-085-099-200300-
SOUTHEAST TENNESSEE

CITY           SKY/WX    TMP DP  RH WIND       PRES   REMARKS
CHATTANOOGA    CLOUDY    43  29  57 N6        30.18R
$$

SKY/WX REPORTED AS FAIR MEANS FEW OR NO CLOUDS BELOW
12 THOUSAND FEET.



USA.gov is the U.S. government's official web portal to all federal, state and local government web resources and services.